GW4987 Weather Reports


time (UTC)temp
C
wind
direction
speed
KPH
gust
KPH
rain 1hr
cm
rain 24hr
cm
rain mn
cm
humidity
%
barometer
mb
20260504215012 16 150 16.1 37.0 0.00 0.00 0.00 32 1015.4
20260504214515 15 201 24.1 32.2 0.00 0.00 0.00 34 1015.5
20260504214047 16 159 16.1 43.5 0.00 0.00 0.00 31 1015.6
20260504213547 15 143 14.5 35.4 0.00 0.00 0.00 28 1015.6
20260504213014 15 190 20.9 32.2 0.00 0.00 0.00 32 1015.5
20260504212547 16 117 4.8 30.6 0.00 0.00 0.00 32 1015.6
20260504212012 16 209 12.9 24.1 0.00 0.00 0.00 31 1015.7
20260504211514 15 214 22.5 54.7 0.00 0.00 0.00 32 1015.8
20260504211047 15 178 17.7 38.6 0.00 0.00 0.00 36 1015.9
20260504210512 15 165 17.7 43.5 0.00 0.00 0.00 42 1015.6
20260504210011 15 187 24.1 35.4 0.00 0.00 0.00 40 1015.6
20260504205547 15 198 33.8 61.2 0.00 0.00 0.00 37 1015.7
20260504205012 15 172 25.7 35.4 0.00 0.00 0.00 38 1015.9
20260504204510 15 217 29.0 35.4 0.00 0.00 0.00 41 1015.9
20260504204047 15 209 33.8 38.6 0.00 0.00 0.00 38 1015.9
20260504203547 15 195 32.2 40.2 0.00 0.00 0.00 39 1015.8
20260504203009 15 143 25.7 38.6 0.00 0.00 0.00 43 1015.6
20260504202546 16 176 16.1 24.1 0.00 0.00 0.00 41 1015.5
20260504202047 15 216 24.1 33.8 0.00 0.00 0.00 42 1015.6
20260504201507 15 182 22.5 43.5 0.00 0.00 0.00 43 1015.8
20260504201012 16 186 24.1 35.4 0.00 0.00 0.00 41 1015.7
20260504200547 15 186 20.9 45.1 0.00 0.00 0.00 49 1015.7
20260504200006 15 107 24.1 30.6 0.00 0.00 0.00 43 1015.9
20260504195546 15 192 12.9 22.5 0.00 0.00 0.00 43 1015.9
20260504195047 14 125 14.5 53.1 0.00 0.00 0.00 49 1015.9
20260504193004 15 192 22.5 33.8 0.00 0.00 0.00 52 1015.9
20260504192512 15 113 8.0 32.2 0.00 0.00 0.00 49 1015.9
20260504192012 15 122 12.9 29.0 0.00 0.00 0.00 47 1015.7
20260504191502 15 139 37.0 48.3 0.00 0.00 0.00 44 1015.6
20260504191012 15 137 22.5 38.6 0.00 0.00 0.00 46 1015.9
20260504190547 15 152 40.2 41.8 0.00 0.00 0.00 44 1015.9
20260504190002 15 131 11.3 38.6 0.00 0.00 0.00 46 1016.2
20260504185546 14 168 24.1 45.1 0.00 0.00 0.00 47 1016.3
20260504185011 15 157 16.1 41.8 0.00 0.00 0.00 43 1016.1
20260504184549 15 140 24.1 38.6 0.00 0.00 0.00 45 1016.2
20260504184047 14 173 17.7 46.7 0.00 0.00 0.00 48 1016.4
20260504183547 14 218 35.4 43.5 0.00 0.00 0.00 43 1016.2
20260504183011 15 132 17.7 29.0 0.00 0.00 0.00 46 1016.1
20260504182547 14 107 11.3 33.8 0.00 0.00 0.00 48 1016.1
20260504182047 15 161 14.5 25.7 0.00 0.00 0.00 45 1015.9
20260504181547 14 190 17.7 32.2 0.00 0.00 0.00 48 1015.9
20260504181047 15 139 12.9 25.7 0.00 0.00 0.00 48 1016.3
20260504180547 14 191 17.7 29.0 0.00 0.00 0.00 48 1016.3
20260504180011 14 182 14.5 30.6 0.00 0.00 0.00 47 1016.3
20260504175546 14 138 12.9 33.8 0.00 0.00 0.00 48 1016.0
20260504174011 14 207 27.4 33.8 0.00 0.00 0.00 45 1016.0
20260504173547 14 154 11.3 30.6 0.00 0.00 0.00 47 1015.9
20260504173011 14 158 14.5 29.0 0.00 0.00 0.00 48 1016.1
20260504172546 14 227 19.3 32.2 0.00 0.00 0.00 48 1016.1
20260504172046 15 118 20.9 24.1 0.00 0.00 0.00 47 1016.2
20260504171546 14 115 22.5 30.6 0.00 0.00 0.00 48 1016.3
20260504171047 14 119 16.1 22.5 0.00 0.00 0.00 47 1016.3
20260504170547 14 185 11.3 20.9 0.00 0.00 0.00 47 1015.9
20260504151012 12 148 9.7 12.9 0.00 0.00 0.00 47 1015.9
20260504150555 12 177 11.3 17.7 0.00 0.00 0.00 49 1016.0
20260504141011 10 146 12.9 25.7 0.00 0.00 0.00 57 1015.8
20260504140555 10 137 14.5 24.1 0.00 0.00 0.00 57 1015.6
20260504130555 10 136 11.3 19.3 0.00 0.00 0.00 57 1015.5
20260504110513 10 101 4.8 9.7 0.00 0.00 0.00 59 1015.7
20260504100555 11 127 12.9 16.1 0.00 0.00 0.00 56 1015.8
20260504050556 15 208 6.4 8.0 0.00 0.00 0.00 35 1016.3
20260504045555 15 192 9.7 17.7 0.00 0.00 0.00 35 1016.2
20260504045055 15 199 6.4 11.3 0.00 0.00 0.00 36 1016.0
20260504044556 15 189 3.2 19.3 0.00 0.00 0.00 36 1015.9
20260504044012 15 152 8.0 17.7 0.00 0.00 0.00 36 1016.1
20260504043555 15 162 11.3 17.7 0.00 0.00 0.00 36 1016.1
20260504043056 15 322 6.4 32.2 0.00 0.00 0.00 35 1016.0
20260504041013 16 194 12.9 20.9 0.00 0.00 0.00 36 1015.9
20260504040555 16 200 11.3 11.3 0.00 0.00 0.00 36 1015.9
20260504040055 16 196 11.3 14.5 0.00 0.00 0.00 35 1015.9
20260504035555 16 212 12.9 17.7 0.00 0.00 0.00 35 1015.9
20260504035055 16 203 12.9 14.5 0.00 0.00 0.00 35 1015.9
20260504031555 17 188 11.3 25.7 0.00 0.00 0.00 29 1015.4
20260504031055 17 187 8.0 24.1 0.00 0.00 0.00 29 1015.4
20260504030556 17 205 9.7 19.3 0.00 0.00 0.00 28 1015.2
20260504030012 17 182 12.9 32.2 0.00 0.00 0.00 28 1015.0
20260504025556 17 220 20.9 38.6 0.00 0.00 0.00 27 1015.2
20260504025056 17 215 24.1 35.4 0.00 0.00 0.00 27 1015.3
20260504024512 17 219 24.1 41.8 0.00 0.00 0.00 26 1015.1
20260504024012 17 211 32.2 32.2 0.00 0.00 0.00 26 1015.0
20260504023556 17 184 11.3 33.8 0.00 0.00 0.00 26 1015.2
20260504023012 17 184 11.3 32.2 0.00 0.00 0.00 25 1015.2
20260504022555 17 187 14.5 33.8 0.00 0.00 0.00 25 1015.0
20260504022056 18 241 12.9 37.0 0.00 0.00 0.00 24 1015.0
20260504020055 18 194 8.0 24.1 0.00 0.00 0.00 23 1014.6
20260504015555 18 207 25.7 27.4 0.00 0.00 0.00 23 1014.7
20260504015013 18 188 17.7 27.4 0.00 0.00 0.00 22 1014.7
20260504014555 19 168 19.3 22.5 0.00 0.00 0.00 23 1014.6
20260504014056 19 172 19.3 24.1 0.00 0.00 0.00 22 1014.5
20260504013555 20 213 11.3 24.1 0.00 0.00 0.00 22 1014.6
20260504013055 20 208 16.1 24.1 0.00 0.00 0.00 22 1014.7
20260504012555 20 218 24.1 25.7 0.00 0.00 0.00 23 1014.7
20260504012013 20 165 11.3 29.0 0.00 0.00 0.00 23 1014.7
20260504011555 20 181 27.4 35.4 0.00 0.00 0.00 22 1014.9
20260504011056 20 181 12.9 40.2 0.00 0.00 0.00 23 1014.6
20260504010512 20 196 24.1 27.4 0.00 0.00 0.00 22 1014.5
20260504010012 20 198 16.1 30.6 0.00 0.00 0.00 22 1014.7
20260504005556 20 150 12.9 25.7 0.00 0.00 0.00 22 1015.0
20260504005012 20 159 19.3 38.6 0.00 0.00 0.00 23 1015.0
20260504004555 20 209 19.3 41.8 0.00 0.00 0.00 22 1015.0
20260504004056 21 153 14.5 27.4 0.00 0.00 0.00 22 1014.9
20260504003556 21 168 16.1 27.4 0.00 0.00 0.00 21 1015.1
20260504003056 21 205 19.3 33.8 0.00 0.00 0.00 22 1015.2
20260504002556 21 204 29.0 30.6 0.00 0.00 0.00 22 1015.1
20260504002056 21 202 16.1 38.6 0.00 0.00 0.00 23 1015.0
20260504001513 21 146 12.9 35.4 0.00 0.00 0.00 23 1015.1
20260504001012 21 138 14.5 35.4 0.00 0.00 0.00 23 1015.0
20260504000555 21 137 27.4 49.9 0.00 0.00 0.00 22 1015.2
20260504000056 21 188 25.7 32.2 0.00 0.00 0.00 22 1015.1
20260503235555 21 257 19.3 30.6 0.00 0.00 0.00 22 1015.0
20260503235055 21 157 9.7 37.0 0.00 0.00 0.00 22 1015.2
20260503234556 21 181 8.0 30.6 0.00 0.00 0.00 21 1015.1
20260503234013 21 201 19.3 33.8 0.00 0.00 0.00 20 1015.3
20260503233555 21 177 17.7 43.5 0.00 0.00 0.00 21 1015.2
20260503233056 21 204 41.8 45.1 0.00 0.00 0.00 23 1015.1
20260503232513 21 225 19.3 38.6 0.00 0.00 0.00 23 1015.1
20260503232012 21 169 19.3 35.4 0.00 0.00 0.00 22 1015.3
20260503231555 21 228 24.1 48.3 0.00 0.00 0.00 22 1015.1
20260503231012 21 180 33.8 41.8 0.00 0.00 0.00 24 1015.3
20260503230555 22 146 20.9 25.7 0.00 0.00 0.00 22 1015.2
20260503230055 22 157 16.1 22.5 0.00 0.00 0.00 23 1015.1
20260503225555 22 207 19.3 32.2 0.00 0.00 0.00 25 1015.2
20260503225013 21 212 12.9 40.2 0.00 0.00 0.00 25 1015.4
20260503224555 22 172 14.5 33.8 0.00 0.00 0.00 25 1015.3
20260503224055 21 103 11.3 35.4 0.00 0.00 0.00 25 1015.4
20260503223555 21 154 12.9 29.0 0.00 0.00 0.00 25 1015.7
20260503223012 22 209 16.1 40.2 0.00 0.00 0.00 24 1015.6
20260503222555 21 177 11.3 38.6 0.00 0.00 0.00 25 1015.7
20260503222056 21 137 17.7 33.8 0.00 0.00 0.00 25 1015.4
20260503221555 22 140 19.3 25.7 0.00 0.00 0.00 25 1015.8
20260503221055 22 132 11.3 45.1 0.00 0.00 0.00 25 1015.9
20260503220556 22 183 19.3 33.8 0.00 0.00 0.00 25 1016.0